This demonstration page uses our WeatherBlox Daily Observations layout. Learn more.

Left ArrowRight Arrow

44.89941, -97.11507

Hourly Observations for May 2, 2019

Temp ( °F °C ) Dew Point ( °F °C ) Humidity (%) Winds ( mph kmh ) Pressure ( in mb ) Visibility ( mi km ) Precip ( " mm )
12:09 am 00:09 Cloudy with Light Rain 41 5 39 3.9 93 93 SW 8 13 30.11 1020 8 13 0.00 0.03
12:53 am 00:53 Cloudy 41 5 38 3.3 89 89 WSW 9 15 30.11 1020 10 16 0.00 0.03
1:07 am 01:07 Cloudy 40 4.4 38 3.3 93 93 WSW 13 20 30.14 1021 9 14 0.00 0.00
1:53 am 01:53 Cloudy 40 4.4 38 3.3 93 93 WSW 10 17 30.12 1020 10 16 0.00 0.00
2:53 am 02:53 Cloudy 39 3.9 38 3.3 96 96 WNW 12 19 30.11 1020 9 14 0.00 0.00
3:53 am 03:53 Cloudy 38 3.3 37 2.8 97 97 NNW 8 13 30.12 1020 7 11 0.00 0.00
4:53 am 04:53 Cloudy 38 3.3 36 2.2 93 93 NW 12 19 30.14 1021 10 16 0.00 0.00
5:08 am 05:08 Cloudy 38 3.3 36 2.2 93 93 NW 12 19 30.16 1021 10 16 0.00 0.00
5:53 am 05:53 Cloudy 38 3.3 35 1.7 89 89 WNW 9 15 30.15 1021 10 16 0.00 0.00
6:53 am 06:53 Cloudy 38 3.3 35 1.7 89 89 NW 8 13 30.16 1021 10 16 0.00 0.00
7:53 am 07:53 Cloudy 37 2.8 34 1.1 89 89 WNW 9 15 30.18 1022 10 16 0.00 0.00
8:09 am 08:09 Cloudy 38 3.3 35 1.7 89 89 NNW 10 17 30.20 1023 10 16 0.00 0.00
8:53 am 08:53 Cloudy 38 3.3 35 1.7 89 89 WNW 9 15 30.19 1022 10 16 0.00 0.00
9:35 am 09:35 Cloudy 40 4.4 35 1.7 83 83 WNW 7 11 30.20 1023 10 16 0.00 0.00
9:53 am 09:53 Cloudy 40 4.4 34 1.1 79 79 NNW 8 13 30.19 1023 10 16 0.00 0.00
10:53 am 10:53 Cloudy 43 6.1 36 2.2 76 76 WNW 8 13 30.18 1022 10 16 0.00 0.00
11:53 am 11:53 Mostly Cloudy 46 7.8 36 2.2 68 68 WNW 7 11 30.18 1022 10 16 0.00 0.00
12:00 pm 12:00 Partly Cloudy 46 7.8 36 2.2 68 68 undefined N/A 30.17 1022 10 16 0.00 0.00
12:53 pm 12:53 Mostly Cloudy 49 9.4 36 2.2 61 61 WNW 8 13 30.17 1022 10 16 0.00 0.00
1:27 pm 13:27 Mostly Cloudy 49 9.4 34 1.1 56 56 NW 8 13 30.14 1021 10 16 0.00 0.00
1:53 pm 13:53 Partly Cloudy 49 9.4 34 1.1 56 56 NNW 3 6 30.16 1021 10 16 0.00 0.00
2:53 pm 14:53 Partly Cloudy 50 10 35 1.7 57 57 undefined N/A 30.14 1021 10 16 0.00 0.00
3:53 pm 15:53 Partly Cloudy 52 11.1 34 1.1 50 50 VRB 3 6 30.11 1020 10 16 0.00 0.00
4:53 pm 16:53 Cloudy 54 12.2 32 0 43 43 SW 9 15 30.09 1019 10 16 0.00 0.00
5:53 pm 17:53 Partly Cloudy 54 12.2 30 -1.1 40 40 VRB 3 6 30.07 1018 10 16 0.00 0.00
6:53 pm 18:53 Mostly Sunny 53 11.7 31 -0.6 43 43 W 3 6 30.07 1018 10 16 0.00 0.00
7:53 pm 19:53 Sunny 51 10.6 32 0 48 48 SSE 7 11 30.07 1018 10 16 0.00 0.00
8:53 pm 20:53 Clear 48 8.9 33 0.6 56 56 SSE 7 11 30.08 1019 10 16 0.00 0.00
9:53 pm 21:53 Mostly Clear 48 8.9 33 0.6 56 56 SE 5 7 30.08 1019 10 16 0.00 0.00
10:53 pm 22:53 Cloudy 47 8.3 37 2.8 69 69 SE 12 19 30.09 1019 10 16 0.00 0.00
11:53 pm 23:53 Partly Cloudy 45 7.2 37 2.8 74 74 SSE 13 20 30.08 1019 10 16 0.00 0.00

Powered by AerisWeather